This is the latest recevied weather packets stored in our database for station/object KB3KBR-WX. If no packets are shown the sender has not sent any weather packets the latest 10 day(s).
| Time | Temp. | Humidity | Pressure | Rain* | Wind** | Luminosity | Snow |
|---|---|---|---|---|---|---|---|
| 1788153482 | 18.89° C | 94% | 1018.5 hPa | 2.03 mm | - | - | - |
| 1788153155 | 18.89° C | 94% | 1018.5 hPa | 1.78 mm | - | - | - |
| 1788153152 | 18.89° C | 94% | 1018.5 hPa | 1.78 mm | - | - | - |
| 1788152853 | 18.89° C | 94% | 1018.7 hPa | 1.02 mm | - | - | - |
| 1788152528 | 18.89° C | 94% | 1018.8 hPa | 0.76 mm | - | - | - |
| 1788152523 | 18.89° C | 94% | 1018.8 hPa | 0.76 mm | - | - | - |
| 1788152223 | 18.89° C | 94% | 1018.6 hPa | 0.25 mm | - | - | - |
| 1788151971 | 18.89° C | 94% | 1018.6 hPa | 0 mm | - | - | - |
| 1788151927 | 18.89° C | 94% | 1018.6 hPa | 0 mm | - | - | - |
| 1788151922 | 18.89° C | 94% | 1018.6 hPa | 0 mm | - | - | - |
| 1788151665 | 18.89° C | 94% | 1018.8 hPa | 0 mm | - | - | - |
| 1788151594 | 18.89° C | 94% | 1018.8 hPa | 0 mm | - | - | - |
| 1788150968 | 18.89° C | 94% | 1018.7 hPa | 0 mm | - | - | - |
| 1788150965 | 18.89° C | 94% | 1018.7 hPa | 0 mm | - | - | - |
| 1788150634 | 18.89° C | 94% | 1018.6 hPa | 0 mm | - | - | - |
| 1788150502 | 18.89° C | 94% | 1018.6 hPa | 0 mm | - | - | - |
| 1788150335 | 18.89° C | 94% | 1018.6 hPa | 0 mm | - | - | - |
| 1788150333 | 18.89° C | 94% | 1018.6 hPa | 0 mm | - | - | - |
| 1788150064 | 18.89° C | 94% | 1018.5 hPa | 0 mm | - | - | - |
| 1788150003 | 18.89° C | 94% | 1018.4 hPa | 0 mm | - | - | - |
| 1788149825 | 18.89° C | 94% | 1018.5 hPa | 0 mm | - | - | - |
| 1788149672 | 18.89° C | 94% | 1018.5 hPa | 0 mm | - | - | - |
| 1788149344 | 18.89° C | 94% | 1018.6 hPa | 0 mm | - | - | - |
| 1788149042 | 18.89° C | 93% | 1018.6 hPa | 0 mm | - | - | - |
| 1788148713 | 18.89° C | 93% | 1018.7 hPa | 0 mm | - | - | - |
* Rain latest hour (hover to see other rain measurements)
** Current wind speed in m/s (hover to see current wind gust speed)